Precipitable_Water
0.83 0.85 0.88 0.91 0.92 0.92 0.94 0.97 0.99 1.06 1.10 1.11 1.08 1.06 1.07 1.07 1.09 1.15 1.24 1.27 1.31 1.35 1.47 1.60 1.70 1.77 1.80 1.83 1.84 1.87 1.93 1.98 2.09 2.06 2.09 1.96 1.91 1.84 1.83 1.90 1.73 1.57 1.48 1.43 1.41 1.38 1.31 1.26 1.25 1.27 1.28 1.27 1.32 1.42 1.48 1.52 1.62 1.68 1.68 1.70 1.69 1.74 1.69 1.60 1.44 1.41 1.57 1.72 1.74 1.78 1.85 1.86 1.86 1.97 1.94 1.99 2.05 2.11 2.06 2.00 2.01 2.00 2.01 2.02 2.06
0.85 0.83 0.84 0.85 0.86 0.89 0.92 0.99 1.02 1.04 1.03 1.05 1.08 1.09 1.08 1.10 1.12 1.12 1.13 1.24 1.31 1.33 1.37 1.48 1.58 1.67 1.71 1.76 1.79 1.79 1.86 1.95 2.02 2.07 2.08 1.96 1.92 1.90 1.85 1.85 1.85 1.65 1.57 1.47 1.43 1.41 1.38 1.33 1.28 1.24 1.27 1.36 1.47 1.50 1.51 1.51 1.53 1.63 1.70 1.69 1.68 1.70 1.75 1.63 1.57 1.51 1.46 1.63 1.67 1.84 1.84 1.91 1.75 1.91 1.90 1.95 2.02 2.05 2.04 2.07 2.07 2.05 2.00 2.03 2.05
0.92 0.92 0.91 0.89 0.87 0.87 0.89 0.93 0.98 1.02 1.02 1.02 1.02 1.04 1.09 1.11 1.18 1.18 1.18 1.21 1.31 1.35 1.36 1.42 1.49 1.55 1.62 1.69 1.78 1.80 1.83 1.91 2.00 2.06 2.02 2.07 1.96 1.92 1.86 1.85 1.86 1.71 1.61 1.56 1.52 1.50 1.43 1.38 1.36 1.35 1.44 1.47 1.47 1.49 1.55 1.52 1.55 1.62 1.68 1.72 1.71 1.73 1.75 1.73 1.63 1.52 1.50 1.54 1.68 1.69 1.78 1.89 1.82 1.86 1.98 2.01 2.03 2.03 1.98 2.00 2.02 2.09 2.09 2.03 2.03
0.90 0.90 0.90 0.90 0.92 0.91 0.89 0.90 0.90 0.94 0.96 1.02 1.02 1.03 1.05 1.10 1.15 1.16 1.19 1.21 1.22 1.34 1.39 1.39 1.41 1.48 1.53 1.62 1.69 1.76 1.81 1.85 1.92 2.01 2.03 2.05 2.01 1.95 1.91 1.89 1.88 1.76 1.67 1.61 1.57 1.55 1.49 1.47 1.46 1.53 1.57 1.53 1.52 1.54 1.62 1.62 1.62 1.63 1.65 1.70 1.73 1.73 1.77 1.78 1.77 1.65 1.59 1.50 1.61 1.65 1.76 1.77 1.85 1.94 1.95 1.98 1.97 1.99 1.99 2.03 2.05 2.04 2.07 2.09 2.06
0.89 0.88 0.88 0.88 0.90 0.91 0.91 0.92 0.90 0.89 0.91 0.95 1.00 1.05 1.08 1.08 1.11 1.14 1.16 1.19 1.24 1.27 1.33 1.39 1.39 1.43 1.47 1.55 1.63 1.68 1.75 1.81 1.86 1.97 2.03 2.08 2.06 2.01 1.96 1.91 1.85 1.77 1.70 1.66 1.65 1.60 1.50 1.45 1.59 1.63 1.61 1.58 1.58 1.57 1.61 1.63 1.69 1.69 1.66 1.68 1.70 1.74 1.76 1.77 1.76 1.76 1.69 1.58 1.58 1.71 1.79 1.82 1.87 1.88 1.90 1.81 1.88 1.95 2.02 1.97 1.97 2.00 2.02 2.06 2.10
0.87 0.85 0.85 0.84 0.86 0.88 0.91 0.92 0.92 0.91 0.90 0.90 0.95 1.03 1.08 1.11 1.10 1.11 1.14 1.16 1.20 1.23 1.27 1.33 1.38 1.38 1.44 1.52 1.59 1.67 1.78 1.83 1.84 1.91 2.04 2.10 2.08 2.04 2.00 1.93 1.87 1.83 1.76 1.71 1.67 1.66 1.64 1.65 1.63 1.64 1.62 1.57 1.59 1.65 1.67 1.65 1.69 1.70 1.68 1.70 1.72 1.72 1.73 1.76 1.79 1.78 1.75 1.71 1.67 1.64 1.77 1.74 1.79 1.84 1.90 1.86 1.77 1.77 1.85 1.95 2.03 2.02 1.96 1.95 2.04
0.84 0.82 0.82 0.81 0.81 0.84 0.88 0.91 0.93 0.93 0.93 0.94 0.98 1.03 1.08 1.11 1.12 1.10 1.13 1.15 1.14 1.14 1.23 1.29 1.37 1.42 1.43 1.50 1.58 1.66 1.74 1.84 1.87 1.92 1.93 2.09 2.08 2.02 2.00 1.94 1.88 1.85 1.83 1.80 1.77 1.75 1.74 1.73 1.68 1.67 1.62 1.59 1.57 1.58 1.63 1.66 1.69 1.68 1.72 1.73 1.75 1.70 1.66 1.68 1.73 1.75 1.74 1.70 1.70 1.69 1.68 1.80 1.83 1.75 1.92 1.97 1.89 1.83 1.75 1.76 1.79 1.95 2.00 1.95 1.92
0.82 0.82 0.81 0.80 0.82 0.85 0.90 0.94 0.97 1.00 1.01 1.03 1.04 1.05 1.09 1.12 1.14 1.14 1.13 1.13 1.16 1.17 1.16 1.24 1.33 1.41 1.46 1.49 1.62 1.67 1.66 1.78 1.90 1.94 2.01 1.99 2.11 2.12 2.02 1.95 1.89 1.88 1.89 1.90 1.84 1.76 1.78 1.86 1.75 1.69 1.71 1.73 1.71 1.70 1.71 1.67 1.71 1.71 1.75 1.75 1.74 1.69 1.65 1.66 1.69 1.71 1.71 1.70 1.66 1.65 1.72 1.72 1.80 1.84 1.90 1.91 1.79 1.77 1.79 1.74 1.66 1.72 1.82 1.96 1.99
0.83 0.82 0.84 0.85 0.87 0.90 0.94 0.98 1.01 1.03 1.05 1.06 1.07 1.09 1.10 1.12 1.14 1.16 1.15 1.14 1.18 1.19 1.19 1.24 1.30 1.36 1.44 1.50 1.56 1.67 1.69 1.76 1.90 1.92 1.95 2.06 2.06 2.11 2.09 1.99 1.93 1.91 1.90 1.90 1.90 1.87 1.84 1.82 1.73 1.68 1.71 1.70 1.72 1.77 1.79 1.78 1.73 1.68 1.77 1.80 1.74 1.71 1.67 1.64 1.65 1.67 1.70 1.69 1.67 1.72 1.70 1.66 1.67 1.70 1.71 1.71 1.66 1.64 1.81 1.81 1.71 1.78 1.82 1.84 1.97
0.83 0.85 0.85 0.86 0.90 0.95 0.98 1.02 1.04 1.06 1.05 1.07 1.09 1.11 1.13 1.15 1.15 1.14 1.14 1.14 1.16 1.21 1.22 1.22 1.25 1.31 1.38 1.44 1.52 1.59 1.61 1.69 1.77 1.87 1.95 1.99 2.07 2.11 2.00 2.09 2.02 1.97 1.92 1.93 1.94 1.93 1.87 1.78 1.69 1.63 1.67 1.70 1.74 1.75 1.73 1.73 1.75 1.77 1.81 1.85 1.77 1.73 1.71 1.64 1.61 1.62 1.64 1.63 1.63 1.67 1.63 1.62 1.64 1.69 1.67 1.73 1.80 1.83 1.77 1.76 1.65 1.75 1.80 1.77 1.87
0.83 0.84 0.84 0.89 0.93 0.97 1.00 1.03 1.06 1.06 1.09 1.10 1.12 1.13 1.15 1.16 1.15 1.13 1.14 1.15 1.15 1.17 1.19 1.20 1.20 1.23 1.32 1.41 1.46 1.54 1.63 1.69 1.75 1.85 1.92 1.98 2.05 2.12 2.05 2.11 2.12 2.01 1.93 1.89 1.90 1.92 1.86 1.76 1.67 1.64 1.63 1.66 1.71 1.71 1.67 1.63 1.65 1.70 1.75 1.81 1.88 1.82 1.73 1.65 1.62 1.62 1.63 1.62 1.63 1.68 1.64 1.63 1.68 1.73 1.72 1.76 1.81 1.78 1.76 1.78 1.76 1.74 1.68 1.62 1.58
0.85 0.84 0.87 0.90 0.94 0.97 1.01 1.04 1.06 1.09 1.11 1.12 1.14 1.16 1.17 1.18 1.16 1.15 1.15 1.15 1.18 1.19 1.18 1.21 1.22 1.24 1.27 1.35 1.42 1.49 1.57 1.66 1.72 1.84 1.96 1.97 2.02 2.07 2.08 2.05 2.01 2.04 1.97 1.91 1.91 1.93 1.87 1.78 1.69 1.67 1.65 1.65 1.67 1.67 1.63 1.60 1.61 1.66 1.71 1.75 1.77 1.82 1.86 1.81 1.73 1.66 1.63 1.59 1.59 1.62 1.68 1.67 1.74 1.74 1.72 1.73 1.74 1.77 1.80 1.77 1.75 1.79 1.74 1.70 1.70
0.86 0.86 0.89 0.91 0.94 0.97 1.02 1.05 1.06 1.08 1.13 1.15 1.17 1.19 1.20 1.20 1.20 1.20 1.18 1.20 1.21 1.16 1.15 1.20 1.23 1.24 1.26 1.28 1.33 1.43 1.52 1.60 1.65 1.80 1.89 1.97 2.04 2.06 2.06 1.97 2.07 2.04 2.04 1.99 1.97 1.94 1.83 1.76 1.76 1.71 1.68 1.64 1.66 1.67 1.65 1.60 1.59 1.62 1.68 1.74 1.77 1.77 1.79 1.83 1.87 1.82 1.81 1.67 1.57 1.56 1.61 1.72 1.73 1.77 1.82 1.80 1.85 1.73 1.80 1.76 1.79 1.80 1.82 1.77 1.76
0.86 0.86 0.88 0.90 0.93 0.97 1.01 1.03 1.05 1.09 1.13 1.15 1.17 1.19 1.21 1.21 1.23 1.25 1.25 1.25 1.21 1.18 1.19 1.20 1.23 1.24 1.25 1.25 1.27 1.38 1.46 1.55 1.61 1.68 1.83 1.92 1.97 2.01 2.03 2.05 2.03 2.07 2.08 2.01 1.97 1.94 1.90 1.77 1.72 1.73 1.76 1.70 1.66 1.64 1.63 1.63 1.63 1.63 1.62 1.65 1.70 1.77 1.79 1.79 1.79 1.80 1.83 1.79 1.67 1.58 1.71 1.80 1.72 1.86 1.96 1.98 1.83 1.75 1.76 1.73 1.77 1.71 1.76 1.79 1.92
0.85 0.86 0.86 0.89 0.91 0.94 0.97 1.01 1.04 1.09 1.13 1.16 1.17 1.18 1.21 1.23 1.24 1.26 1.29 1.26 1.23 1.20 1.18 1.17 1.21 1.23 1.24 1.25 1.23 1.26 1.36 1.48 1.55 1.64 1.75 1.85 1.91 1.91 1.93 2.00 2.03 2.02 2.06 2.01 1.97 1.96 1.90 1.81 1.77 1.78 1.79 1.80 1.72 1.65 1.61 1.60 1.60 1.59 1.62 1.65 1.67 1.71 1.77 1.80 1.80 1.81 1.83 1.84 1.80 1.75 1.75 1.81 1.87 1.94 2.03 2.09 1.97 1.92 1.90 1.85 1.88 1.86 1.92 1.98 1.95
0.86 0.86 0.85 0.87 0.90 0.93 0.96 0.99 1.03 1.08 1.11 1.15 1.17 1.19 1.22 1.24 1.23 1.26 1.27 1.27 1.28 1.27 1.25 1.24 1.21 1.21 1.24 1.24 1.21 1.22 1.31 1.40 1.49 1.58 1.66 1.75 1.87 1.88 1.88 1.93 1.95 1.99 1.97 1.93 1.94 1.97 1.95 1.86 1.77 1.77 1.82 1.83 1.77 1.74 1.68 1.65 1.61 1.58 1.57 1.61 1.67 1.74 1.76 1.84 1.90 1.93 1.94 1.92 1.89 1.86 1.83 1.85 1.85 1.98 2.06 2.09 2.04 2.02 2.04 2.02 1.99 1.89 1.81 1.74 1.68
0.85 0.85 0.85 0.88 0.90 0.94 0.96 0.97 1.00 1.05 1.11 1.12 1.14 1.19 1.21 1.23 1.26 1.29 1.24 1.24 1.24 1.24 1.24 1.24 1.26 1.24 1.21 1.21 1.19 1.21 1.27 1.37 1.44 1.53 1.60 1.72 1.84 1.87 1.89 1.91 1.92 1.92 1.92 1.89 1.89 1.91 1.94 1.91 1.87 1.94 1.87 1.81 1.79 1.80 1.76 1.69 1.64 1.61 1.59 1.61 1.66 1.68 1.72 1.84 1.90 1.95 1.98 1.98 1.97 1.94 1.94 1.91 1.95 2.01 2.01 2.00 2.03 2.08 2.03 1.89 1.79 1.84 1.73 1.63 1.68
0.86 0.86 0.87 0.90 0.93 0.95 0.98 0.99 0.99 1.04 1.09 1.11 1.14 1.19 1.24 1.27 1.26 1.29 1.24 1.21 1.21 1.23 1.27 1.26 1.26 1.26 1.23 1.18 1.19 1.20 1.24 1.34 1.42 1.50 1.59 1.71 1.84 1.87 1.87 1.87 1.87 1.90 1.91 1.92 1.93 1.91 1.96 2.01 2.03 2.05 1.94 1.86 1.86 1.83 1.81 1.78 1.68 1.66 1.69 1.67 1.66 1.66 1.69 1.83 1.89 1.94 1.99 2.00 2.00 1.97 1.94 1.93 1.97 2.00 2.01 2.02 2.06 2.09 1.99 1.80 1.89 1.91 1.74 1.72 1.63
0.87 0.88 0.90 0.95 0.97 0.98 1.01 1.03 1.04 1.05 1.06 1.11 1.16 1.18 1.22 1.25 1.28 1.29 1.27 1.26 1.24 1.27 1.27 1.27 1.28 1.28 1.27 1.22 1.23 1.22 1.24 1.31 1.38 1.44 1.55 1.67 1.78 1.87 1.90 1.84 1.80 1.82 1.85 1.88 1.93 2.00 2.03 2.02 2.01 2.01 1.97 1.88 1.89 1.85 1.83 1.84 1.80 1.74 1.70 1.71 1.65 1.60 1.65 1.78 1.83 1.83 1.87 1.91 1.93 1.95 1.93 1.95 1.98 2.00 2.04 2.07 2.09 2.11 2.10 2.03 2.00 1.90 1.75 1.77 1.73
0.90 0.92 0.95 0.98 0.99 1.00 1.03 1.06 1.09 1.10 1.10 1.12 1.17 1.20 1.25 1.25 1.26 1.27 1.27 1.27 1.27 1.28 1.28 1.28 1.25 1.26 1.28 1.24 1.23 1.25 1.26 1.31 1.37 1.41 1.49 1.60 1.72 1.79 1.85 1.81 1.74 1.75 1.81 1.83 1.83 1.89 1.95 1.95 2.03 2.00 1.95 1.95 1.92 1.89 1.86 1.88 1.84 1.86 1.83 1.70 1.64 1.65 1.81 1.87 1.94 1.92 1.87 1.87 1.90 1.92 1.90 1.97 1.98 2.03 2.07 2.10 2.09 2.12 2.13 2.14 2.11 2.01 1.86 1.82 1.77
0.91 0.91 0.94 0.98 0.99 1.00 1.05 1.10 1.11 1.15 1.19 1.19 1.20 1.22 1.24 1.24 1.25 1.27 1.26 1.26 1.25 1.24 1.24 1.24 1.24 1.24 1.24 1.23 1.20 1.22 1.27 1.32 1.37 1.40 1.45 1.55 1.65 1.73 1.77 1.80 1.80 1.78 1.78 1.79 1.80 1.81 1.86 1.92 1.95 2.00 1.97 1.94 1.90 1.87 1.85 1.87 1.90 1.90 1.85 1.74 1.76 1.89 1.95 1.85 1.89 1.96 1.89 1.98 1.95 1.86 1.95 1.96 1.99 1.99 2.03 2.06 2.06 2.09 2.13 2.15 2.16 2.12 1.99 1.87 1.77
0.91 0.90 0.93 0.96 0.98 1.00 1.05 1.11 1.15 1.17 1.21 1.22 1.21 1.21 1.25 1.27 1.26 1.26 1.27 1.25 1.21 1.20 1.22 1.23 1.25 1.23 1.23 1.24 1.22 1.22 1.26 1.31 1.34 1.40 1.41 1.48 1.57 1.67 1.72 1.78 1.83 1.81 1.76 1.76 1.79 1.83 1.87 1.95 1.96 1.97 1.93 1.92 1.93 1.89 1.85 1.83 1.85 1.88 1.85 1.84 1.91 1.97 1.93 1.95 1.97 1.97 1.91 1.88 1.87 1.87 1.87 1.84 1.87 1.94 1.95 1.97 2.00 2.06 2.09 2.11 2.13 2.12 2.11 2.03 1.90
0.90 0.88 0.89 0.94 0.98 1.00 1.02 1.06 1.13 1.18 1.20 1.22 1.22 1.22 1.26 1.26 1.26 1.25 1.23 1.22 1.22 1.21 1.22 1.24 1.21 1.21 1.20 1.21 1.24 1.25 1.27 1.31 1.37 1.37 1.40 1.44 1.51 1.60 1.68 1.75 1.83 1.84 1.77 1.73 1.76 1.80 1.91 1.93 1.94 2.00 1.95 1.96 1.95 1.90 1.84 1.82 1.82 1.83 1.84 1.87 1.87 1.89 1.90 1.90 1.89 1.86 1.85 1.92 1.93 1.87 1.84 1.81 1.78 1.81 1.87 1.91 1.97 2.05 2.07 2.09 2.12 2.12 2.12 2.15 2.13
0.89 0.85 0.85 0.91 0.98 1.00 1.00 1.04 1.11 1.17 1.20 1.23 1.25 1.24 1.23 1.24 1.24 1.23 1.22 1.21 1.19 1.19 1.20 1.22 1.21 1.19 1.16 1.17 1.21 1.24 1.28 1.33 1.37 1.37 1.39 1.43 1.48 1.55 1.63 1.70 1.78 1.82 1.83 1.79 1.82 1.83 1.87 1.88 1.94 1.97 2.00 1.95 1.92 1.87 1.81 1.78 1.78 1.80 1.83 1.84 1.86 1.88 1.88 1.86 1.84 1.85 1.86 1.84 1.80 1.80 1.86 1.92 1.87 1.82 1.86 1.99 2.03 2.07 2.08 2.11 2.12 2.14 2.10 2.14 2.17
0.86 0.83 0.82 0.86 0.92 0.97 0.98 1.00 1.06 1.12 1.17 1.22 1.20 1.22 1.23 1.24 1.21 1.23 1.23 1.21 1.22 1.19 1.20 1.25 1.25 1.20 1.19 1.18 1.19 1.22 1.29 1.34 1.37 1.40 1.40 1.41 1.44 1.49 1.58 1.66 1.72 1.78 1.76 1.79 1.84 1.86 1.90 1.92 1.92 1.92 1.91 1.92 1.92 1.91 1.86 1.82 1.80 1.80 1.81 1.81 1.83 1.82 1.81 1.81 1.80 1.83 1.77 1.76 1.80 1.79 1.82 1.92 1.99 1.98 1.98 2.06 2.12 2.14 2.11 2.13 2.15 2.14 2.15 2.17 2.21
0.84 0.81 0.80 0.81 0.84 0.91 0.94 0.96 0.98 1.05 1.12 1.21 1.24 1.25 1.24 1.23 1.22 1.23 1.23 1.21 1.20 1.20 1.20 1.18 1.20 1.23 1.21 1.21 1.20 1.20 1.26 1.33 1.34 1.38 1.41 1.42 1.44 1.47 1.54 1.63 1.69 1.75 1.77 1.77 1.80 1.83 1.84 1.85 1.85 1.85 1.88 1.92 1.93 1.91 1.88 1.87 1.86 1.85 1.84 1.84 1.83 1.79 1.79 1.77 1.77 1.73 1.70 1.74 1.75 1.71 1.75 1.85 1.96 2.05 2.06 2.10 2.05 1.99 2.05 2.02 2.00 1.99 2.05 2.04 2.02
0.85 0.82 0.80 0.79 0.79 0.82 0.86 0.92 0.94 0.98 1.08 1.17 1.23 1.25 1.27 1.26 1.24 1.22 1.23 1.21 1.19 1.18 1.21 1.20 1.18 1.23 1.26 1.26 1.23 1.22 1.22 1.28 1.33 1.39 1.45 1.45 1.46 1.49 1.53 1.60 1.68 1.72 1.73 1.74 1.73 1.74 1.77 1.80 1.83 1.88 1.90 1.90 1.89 1.89 1.89 1.91 1.89 1.86 1.84 1.83 1.81 1.81 1.83 1.82 1.79 1.75 1.71 1.70 1.72 1.75 1.83 1.94 2.00 1.98 1.97 1.93 1.93 2.01 2.09 2.06 2.03 2.02 2.02 2.02 1.98
0.84 0.81 0.79 0.79 0.78 0.79 0.80 0.84 0.90 0.95 1.01 1.08 1.13 1.18 1.22 1.24 1.24 1.23 1.22 1.22 1.18 1.16 1.16 1.18 1.17 1.21 1.23 1.24 1.24 1.23 1.21 1.24 1.29 1.31 1.36 1.46 1.45 1.49 1.52 1.58 1.64 1.67 1.67 1.70 1.71 1.74 1.78 1.83 1.86 1.86 1.82 1.77 1.75 1.75 1.77 1.81 1.84 1.84 1.83 1.84 1.83 1.82 1.83 1.85 1.87 1.85 1.83 1.84 1.85 1.88 1.90 1.92 1.89 1.90 1.95 1.95 1.97 2.05 2.11 2.05 2.02 2.00 2.02 2.01 1.91
0.84 0.82 0.81 0.79 0.77 0.79 0.79 0.80 0.84 0.90 0.96 1.02 1.08 1.15 1.18 1.20 1.22 1.24 1.30 1.32 1.28 1.22 1.18 1.19 1.22 1.25 1.26 1.23 1.20 1.18 1.20 1.23 1.31 1.41 1.47 1.49 1.48 1.48 1.48 1.51 1.61 1.68 1.69 1.72 1.71 1.74 1.76 1.78 1.77 1.73 1.68 1.63 1.61 1.61 1.66 1.72 1.78 1.83 1.82 1.83 1.84 1.86 1.86 1.83 1.78 1.79 1.82 1.82 1.80 1.81 1.82 1.88 1.92 2.01 2.02 1.97 1.99 2.07 2.11 2.06 2.06 2.01 2.02 2.01 1.91
0.82 0.80 0.79 0.78 0.78 0.77 0.77 0.78 0.82 0.86 0.92 0.97 1.01 1.08 1.21 1.25 1.26 1.24 1.24 1.30 1.30 1.28 1.25 1.20 1.22 1.23 1.20 1.23 1.25 1.18 1.16 1.26 1.34 1.38 1.42 1.46 1.50 1.51 1.53 1.55 1.59 1.65 1.70 1.73 1.72 1.66 1.66 1.64 1.61 1.58 1.56 1.53 1.50 1.52 1.60 1.68 1.67 1.66 1.69 1.76 1.82 1.86 1.90 1.91 1.91 1.91 1.92 1.85 1.84 1.88 1.87 1.88 1.94 2.07 2.12 2.04 2.02 2.06 2.07 2.04 2.00 2.03 1.96 1.95 1.92
0.82 0.80 0.78 0.76 0.77 0.77 0.77 0.78 0.80 0.83 0.89 0.96 0.99 1.01 1.06 1.18 1.28 1.30 1.29 1.27 1.28 1.27 1.26 1.27 1.27 1.27 1.24 1.17 1.21 1.24 1.25 1.29 1.33 1.37 1.40 1.44 1.46 1.49 1.52 1.54 1.56 1.61 1.68 1.66 1.61 1.56 1.51 1.48 1.52 1.54 1.52 1.49 1.50 1.57 1.60 1.56 1.56 1.62 1.70 1.77 1.81 1.85 1.90 1.94 1.99 2.03 1.97 1.91 1.94 1.93 1.90 1.89 1.89 1.92 1.93 1.99 1.99 2.01 2.03 2.08 2.06 2.03 1.97 1.95 1.90
0.80 0.78 0.79 0.79 0.79 0.80 0.80 0.80 0.81 0.81 0.87 0.93 0.97 0.99 1.05 1.10 1.20 1.33 1.32 1.28 1.29 1.28 1.27 1.27 1.28 1.27 1.26 1.23 1.20 1.20 1.25 1.28 1.32 1.36 1.39 1.43 1.45 1.48 1.52 1.55 1.57 1.60 1.64 1.65 1.54 1.51 1.50 1.45 1.46 1.49 1.51 1.51 1.56 1.56 1.54 1.53 1.57 1.67 1.75 1.78 1.79 1.84 1.87 1.91 2.01 2.01 1.99 1.97 1.94 1.89 1.88 1.90 1.90 1.91 1.95 2.00 2.03 2.02 2.01 2.00 2.00 1.96 1.98 1.92 1.73
0.82 0.81 0.81 0.83 0.84 0.84 0.83 0.83 0.82 0.83 0.84 0.88 0.91 0.96 1.03 1.11 1.14 1.20 1.30 1.34 1.30 1.28 1.29 1.29 1.30 1.30 1.27 1.25 1.23 1.21 1.22 1.26 1.29 1.34 1.40 1.41 1.44 1.47 1.50 1.51 1.54 1.59 1.60 1.55 1.50 1.46 1.47 1.44 1.42 1.46 1.51 1.52 1.54 1.53 1.51 1.52 1.60 1.67 1.73 1.76 1.77 1.82 1.88 1.96 2.02 2.01 2.01 2.01 1.96 1.91 1.93 1.94 1.94 1.96 2.02 2.06 2.04 2.01 1.98 1.96 1.98 1.97 1.81 1.66 1.57
0.84 0.84 0.84 0.85 0.85 0.85 0.85 0.84 0.83 0.82 0.86 0.89 0.92 0.97 1.06 1.14 1.20 1.24 1.18 1.19 1.24 1.31 1.34 1.33 1.33 1.34 1.31 1.28 1.25 1.23 1.22 1.23 1.28 1.36 1.41 1.43 1.44 1.46 1.49 1.52 1.55 1.57 1.58 1.53 1.52 1.47 1.46 1.43 1.38 1.37 1.42 1.47 1.50 1.50 1.44 1.47 1.58 1.63 1.68 1.71 1.74 1.81 1.88 1.99 2.01 1.98 1.97 2.01 2.00 1.98 1.98 1.97 1.98 1.99 1.99 2.01 2.02 2.01 2.01 1.94 1.78 1.66 1.57 1.47 1.40
0.85 0.85 0.86 0.88 0.87 0.85 0.85 0.84 0.83 0.83 0.85 0.88 0.93 1.01 1.09 1.19 1.22 1.20 1.23 1.16 1.12 1.18 1.22 1.32 1.39 1.40 1.35 1.32 1.28 1.25 1.24 1.24 1.28 1.32 1.36 1.41 1.43 1.43 1.44 1.46 1.43 1.49 1.55 1.58 1.56 1.53 1.49 1.44 1.36 1.37 1.38 1.38 1.42 1.43 1.39 1.45 1.53 1.62 1.67 1.64 1.63 1.77 1.85 1.92 1.93 1.96 1.96 1.97 1.95 1.96 1.96 1.93 1.92 1.96 2.02 2.02 2.00 1.89 1.70 1.66 1.60 1.53 1.43 1.34 1.27
0.85 0.85 0.85 0.87 0.87 0.86 0.86 0.85 0.86 0.86 0.88 0.92 0.99 1.06 1.16 1.22 1.26 1.23 1.24 1.26 1.22 1.19 1.20 1.23 1.29 1.29 1.31 1.31 1.29 1.26 1.25 1.25 1.25 1.29 1.34 1.40 1.43 1.44 1.35 1.36 1.41 1.45 1.50 1.54 1.55 1.55 1.52 1.44 1.38 1.36 1.37 1.36 1.38 1.33 1.34 1.39 1.50 1.56 1.63 1.62 1.55 1.65 1.69 1.72 1.77 1.83 1.90 1.95 1.93 1.96 1.92 1.78 1.76 1.78 1.79 1.72 1.71 1.66 1.60 1.53 1.47 1.41 1.36 1.32 1.25
0.87 0.87 0.88 0.89 0.89 0.89 0.89 0.90 0.90 0.91 0.93 0.97 1.04 1.14 1.21 1.23 1.28 1.27 1.24 1.22 1.20 1.21 1.20 1.21 1.23 1.29 1.30 1.30 1.29 1.27 1.27 1.24 1.24 1.25 1.27 1.31 1.37 1.41 1.38 1.36 1.32 1.35 1.45 1.59 1.59 1.59 1.52 1.44 1.37 1.33 1.34 1.36 1.34 1.30 1.33 1.37 1.39 1.43 1.47 1.56 1.58 1.54 1.53 1.58 1.63 1.68 1.67 1.66 1.64 1.66 1.72 1.71 1.71 1.70 1.64 1.58 1.62 1.59 1.52 1.41 1.34 1.28 1.22 1.21 1.22
0.89 0.89 0.89 0.91 0.92 0.92 0.92 0.91 0.93 0.97 1.01 1.06 1.15 1.18 1.25 1.26 1.27 1.24 1.23 1.20 1.22 1.22 1.21 1.25 1.24 1.20 1.16 1.21 1.31 1.30 1.28 1.25 1.22 1.20 1.23 1.25 1.27 1.30 1.33 1.34 1.38 1.42 1.46 1.60 1.67 1.61 1.53 1.42 1.33 1.29 1.34 1.36 1.33 1.32 1.34 1.36 1.37 1.38 1.35 1.39 1.42 1.40 1.39 1.45 1.51 1.58 1.59 1.58 1.56 1.59 1.70 1.68 1.67 1.67 1.62 1.51 1.45 1.42 1.35 1.29 1.24 1.22 1.23 1.25 1.27
0.90 0.92 0.94 0.95 0.96 0.96 0.96 0.98 1.01 1.05 1.10 1.16 1.23 1.28 1.24 1.25 1.26 1.25 1.22 1.22 1.23 1.24 1.21 1.26 1.26 1.26 1.27 1.31 1.31 1.37 1.31 1.22 1.17 1.16 1.19 1.22 1.25 1.28 1.32 1.36 1.41 1.47 1.52 1.52 1.55 1.58 1.49 1.32 1.26 1.31 1.36 1.36 1.35 1.32 1.31 1.35 1.36 1.36 1.32 1.33 1.34 1.29 1.26 1.29 1.35 1.46 1.52 1.53 1.52 1.52 1.54 1.53 1.53 1.53 1.53 1.47 1.42 1.36 1.30 1.23 1.23 1.25 1.23 1.19 1.17
0.93 0.94 0.97 0.98 0.98 0.99 1.03 1.07 1.11 1.14 1.17 1.21 1.25 1.26 1.26 1.27 1.25 1.23 1.22 1.19 1.20 1.20 1.22 1.21 1.20 1.20 1.26 1.31 1.34 1.38 1.31 1.26 1.23 1.24 1.24 1.23 1.22 1.26 1.29 1.35 1.44 1.52 1.55 1.57 1.61 1.56 1.42 1.29 1.26 1.30 1.33 1.34 1.34 1.35 1.32 1.32 1.34 1.35 1.30 1.31 1.29 1.25 1.30 1.32 1.34 1.37 1.34 1.37 1.41 1.43 1.44 1.44 1.47 1.47 1.43 1.35 1.30 1.25 1.18 1.18 1.20 1.19 1.18 1.14 1.22
0.96 0.97 1.00 1.01 1.03 1.05 1.09 1.12 1.15 1.18 1.21 1.24 1.26 1.26 1.25 1.23 1.25 1.26 1.24 1.24 1.18 1.18 1.15 1.18 1.22 1.25 1.28 1.32 1.37 1.37 1.33 1.29 1.29 1.29 1.27 1.25 1.27 1.31 1.34 1.41 1.52 1.59 1.59 1.60 1.58 1.50 1.36 1.26 1.30 1.32 1.32 1.39 1.46 1.47 1.43 1.41 1.34 1.28 1.25 1.26 1.25 1.26 1.29 1.31 1.31 1.29 1.27 1.26 1.26 1.28 1.32 1.36 1.38 1.36 1.29 1.26 1.27 1.26 1.24 1.25 1.23 1.22 1.21 1.22 1.27
0.98 0.99 1.01 1.04 1.08 1.10 1.13 1.15 1.19 1.22 1.25 1.27 1.27 1.26 1.25 1.23 1.21 1.25 1.25 1.23 1.24 1.23 1.25 1.21 1.26 1.31 1.34 1.38 1.39 1.39 1.36 1.36 1.32 1.29 1.31 1.35 1.34 1.40 1.49 1.56 1.63 1.61 1.61 1.61 1.54 1.40 1.27 1.25 1.33 1.39 1.38 1.44 1.48 1.50 1.48 1.43 1.31 1.20 1.19 1.19 1.21 1.21 1.22 1.22 1.25 1.26 1.24 1.22 1.23 1.26 1.29 1.34 1.35 1.31 1.27 1.23 1.21 1.22 1.20 1.21 1.22 1.24 1.23 1.24 1.28
1.03 1.04 1.06 1.08 1.10 1.13 1.15 1.19 1.23 1.25 1.25 1.26 1.26 1.26 1.27 1.28 1.28 1.26 1.28 1.27 1.27 1.28 1.25 1.22 1.27 1.32 1.36 1.42 1.40 1.37 1.39 1.40 1.35 1.35 1.38 1.39 1.39 1.46 1.52 1.61 1.62 1.65 1.67 1.62 1.51 1.40 1.29 1.30 1.38 1.41 1.46 1.53 1.58 1.58 1.49 1.46 1.36 1.30 1.27 1.25 1.27 1.28 1.27 1.25 1.25 1.25 1.22 1.19 1.19 1.22 1.25 1.26 1.25 1.24 1.26 1.24 1.25 1.26 1.24 1.23 1.24 1.27 1.32 1.37 1.40
1.07 1.08 1.10 1.11 1.13 1.17 1.21 1.23 1.24 1.27 1.27 1.27 1.26 1.25 1.26 1.25 1.26 1.28 1.28 1.27 1.27 1.25 1.27 1.27 1.26 1.26 1.30 1.41 1.40 1.44 1.42 1.45 1.42 1.36 1.39 1.45 1.49 1.49 1.58 1.64 1.70 1.70 1.65 1.56 1.46 1.36 1.36 1.40 1.38 1.42 1.46 1.47 1.46 1.49 1.56 1.61 1.52 1.45 1.36 1.36 1.33 1.32 1.32 1.27 1.24 1.23 1.26 1.27 1.27 1.25 1.26 1.25 1.25 1.27 1.25 1.24 1.24 1.23 1.26 1.31 1.37 1.42 1.44 1.46 1.47
1.11 1.11 1.12 1.13 1.16 1.17 1.20 1.25 1.25 1.25 1.25 1.24 1.23 1.24 1.24 1.24 1.24 1.24 1.23 1.22 1.20 1.21 1.21 1.22 1.25 1.31 1.36 1.38 1.41 1.39 1.46 1.51 1.38 1.38 1.39 1.43 1.49 1.50 1.56 1.60 1.60 1.56 1.51 1.43 1.39 1.38 1.38 1.36 1.35 1.34 1.42 1.42 1.33 1.44 1.50 1.53 1.57 1.58 1.52 1.46 1.38 1.35 1.36 1.34 1.34 1.36 1.36 1.35 1.30 1.30 1.28 1.24 1.24 1.26 1.25 1.26 1.34 1.39 1.43 1.45 1.47 1.48 1.47 1.48 1.48
1.15 1.17 1.18 1.19 1.19 1.19 1.20 1.20 1.22 1.22 1.22 1.20 1.19 1.18 1.20 1.20 1.19 1.18 1.19 1.19 1.20 1.21 1.21 1.23 1.25 1.31 1.39 1.40 1.43 1.41 1.53 1.51 1.38 1.35 1.46 1.54 1.60 1.58 1.58 1.53 1.49 1.45 1.40 1.37 1.39 1.39 1.35 1.35 1.34 1.43 1.41 1.46 1.34 1.34 1.43 1.49 1.55 1.61 1.61 1.59 1.59 1.56 1.56 1.52 1.49 1.44 1.42 1.37 1.31 1.32 1.31 1.31 1.32 1.37 1.39 1.43 1.49 1.54 1.54 1.56 1.52 1.48 1.50 1.49 1.48
1.19 1.20 1.19 1.20 1.21 1.21 1.21 1.20 1.20 1.20 1.20 1.19 1.19 1.18 1.18 1.19 1.20 1.19 1.19 1.18 1.19 1.21 1.22 1.24 1.28 1.32 1.36 1.36 1.39 1.43 1.47 1.49 1.37 1.37 1.49 1.70 1.72 1.62 1.55 1.46 1.40 1.38 1.36 1.35 1.34 1.35 1.34 1.30 1.49 1.54 1.33 1.53 1.46 1.31 1.36 1.44 1.49 1.54 1.58 1.56 1.53 1.52 1.55 1.56 1.53 1.52 1.49 1.47 1.49 1.47 1.45 1.45 1.46 1.49 1.51 1.53 1.57 1.60 1.58 1.55 1.58 1.58 1.58 1.59 1.57
1.18 1.17 1.17 1.20 1.22 1.21 1.18 1.18 1.17 1.17 1.17 1.17 1.17 1.17 1.17 1.18 1.19 1.18 1.16 1.16 1.18 1.20 1.22 1.26 1.28 1.32 1.34 1.37 1.45 1.53 1.56 1.45 1.35 1.37 1.41 1.49 1.54 1.51 1.48 1.40 1.37 1.39 1.36 1.28 1.29 1.31 1.35 1.38 1.58 1.63 1.30 1.47 1.51 1.41 1.37 1.43 1.47 1.50 1.50 1.51 1.48 1.43 1.41 1.42 1.48 1.53 1.59 1.63 1.63 1.61 1.59 1.60 1.58 1.58 1.54 1.62 1.58 1.61 1.58 1.52 1.59 1.60 1.58 1.56 1.55
1.15 1.16 1.19 1.21 1.21 1.20 1.18 1.17 1.16 1.15 1.15 1.16 1.16 1.16 1.16 1.16 1.15 1.15 1.15 1.15 1.17 1.19 1.21 1.22 1.26 1.30 1.32 1.36 1.46 1.50 1.49 1.40 1.31 1.39 1.38 1.33 1.36 1.37 1.38 1.37 1.37 1.39 1.34 1.26 1.27 1.31 1.33 1.36 1.45 1.36 1.30 1.36 1.43 1.45 1.43 1.42 1.45 1.43 1.41 1.37 1.38 1.39 1.41 1.43 1.45 1.53 1.62 1.67 1.67 1.68 1.68 1.67 1.64 1.62 1.63 1.59 1.61 1.61 1.58 1.56 1.52 1.50 1.49 1.49 1.51
1.15 1.18 1.21 1.22 1.21 1.20 1.22 1.21 1.19 1.18 1.18 1.18 1.17 1.17 1.17 1.16 1.15 1.14 1.14 1.15 1.16 1.19 1.21 1.24 1.25 1.31 1.33 1.39 1.43 1.51 1.50 1.46 1.46 1.46 1.45 1.41 1.30 1.29 1.34 1.36 1.33 1.31 1.30 1.28 1.29 1.28 1.29 1.32 1.37 1.39 1.44 1.48 1.52 1.59 1.51 1.45 1.40 1.37 1.36 1.39 1.43 1.48 1.51 1.56 1.61 1.64 1.65 1.66 1.67 1.69 1.69 1.68 1.66 1.63 1.62 1.61 1.60 1.59 1.55 1.52 1.50 1.47 1.46 1.44 1.44
1.15 1.20 1.23 1.23 1.21 1.21 1.20 1.20 1.18 1.17 1.18 1.20 1.20 1.20 1.19 1.19 1.18 1.19 1.18 1.17 1.17 1.18 1.21 1.24 1.27 1.31 1.38 1.44 1.45 1.45 1.45 1.47 1.50 1.46 1.45 1.44 1.31 1.32 1.29 1.34 1.35 1.35 1.35 1.35 1.36 1.36 1.40 1.44 1.43 1.46 1.50 1.53 1.55 1.61 1.61 1.56 1.52 1.50 1.52 1.56 1.60 1.61 1.63 1.66 1.68 1.68 1.68 1.71 1.72 1.71 1.68 1.63 1.60 1.56 1.54 1.53 1.51 1.48 1.45 1.44 1.44 1.43 1.43 1.44 1.44
Wind_Speed
21 21 21 21 22 22 22 22 22 22 22 22 23 23 23 23 23 24 24 25 26 26 26 27 27 27 26 26 27 27 28 29 29 31 32 33 32 32 31 29 28 28 28 27 27 26 26 26 25 25 24 23 22 21 21 20 20 19 19 18 18 17 17 16 16 16 16 15 15 15 15 15 14 14 14 14 14 15 15 15 15 15 15 15 15
21 22 22 22 22 22 22 22 22 22 23 23 23 24 24 24 24 24 25 25 26 26 26 27 27 27 27 27 27 28 28 29 30 31 32 33 33 32 32 31 29 29 29 28 28 27 27 26 26 25 25 24 23 22 22 21 20 20 20 19 19 18 18 17 17 17 16 16 16 15 15 15 15 15 15 15 15 15 15 15 15 16 16 16 16
22 22 22 23 23 23 23 23 22 23 23 23 23 24 24 24 24 25 25 25 26 26 26 26 27 27 28 28 28 28 29 30 30 31 32 33 34 33 33 32 31 30 30 29 29 28 27 27 27 26 25 25 24 23 23 22 21 21 21 20 20 19 19 18 18 17 17 17 16 16 16 15 16 15 15 15 15 15 16 16 16 16 16 17 16
23 23 23 23 24 24 24 24 23 23 23 23 23 24 24 24 25 25 25 26 26 26 26 26 27 27 28 28 28 29 29 30 31 31 32 33 35 34 33 33 32 31 31 30 30 29 29 28 27 27 26 25 25 24 23 23 22 22 22 21 20 20 19 19 19 18 18 18 17 17 17 16 16 16 16 16 16 16 16 16 16 16 17 17 17
24 24 24 25 25 25 24 24 24 24 24 24 24 24 24 24 25 25 25 26 26 26 26 26 27 27 27 28 28 28 29 30 30 31 31 33 35 35 34 34 33 32 32 31 31 30 30 29 28 27 27 26 25 25 24 24 23 22 22 22 21 21 20 20 19 19 19 19 18 18 17 17 17 17 17 17 16 16 16 16 17 17 17 17 17
25 25 25 25 25 25 25 25 24 24 24 24 24 24 24 24 24 25 25 25 26 26 26 26 27 27 27 28 28 28 29 29 30 31 32 33 34 35 35 35 34 33 33 32 32 31 30 30 29 28 28 27 26 26 25 25 24 24 23 23 22 21 21 20 20 20 19 19 19 19 18 17 17 17 17 17 17 17 16 16 17 17 17 17 17
25 25 26 26 26 26 25 25 24 24 24 24 23 23 23 23 24 24 24 25 25 26 26 26 26 27 27 28 28 28 29 29 30 30 31 32 34 36 36 36 35 34 33 33 33 32 31 31 30 30 29 28 28 27 26 26 25 25 24 23 23 23 22 21 21 21 20 20 20 19 19 18 18 18 18 17 18 18 17 17 17 17 17 17 17
26 26 26 26 26 26 25 25 24 24 24 23 23 23 23 23 23 23 24 24 25 25 26 26 26 26 26 27 27 28 28 28 29 30 30 31 33 36 37 36 36 35 34 34 34 33 33 31 31 30 30 29 29 28 27 26 26 25 25 24 24 23 23 23 22 21 21 21 20 20 19 19 19 18 18 18 18 18 18 18 18 18 18 18 18
26 26 26 26 26 25 25 24 24 24 24 23 23 23 23 23 23 23 23 24 24 25 25 25 25 26 26 26 27 28 28 28 28 29 30 31 32 34 36 37 37 36 35 34 34 34 33 32 31 31 30 30 29 29 28 27 26 26 25 25 25 24 24 23 23 22 22 21 21 20 20 20 20 19 19 18 19 19 19 19 19 19 19 19 19
26 26 26 26 26 25 25 24 24 24 23 23 23 24 24 24 24 23 23 24 24 24 24 25 25 25 26 26 27 27 28 28 29 30 30 30 31 33 34 36 37 37 36 35 34 34 34 33 32 32 31 31 30 30 29 28 28 27 26 26 25 25 25 24 24 23 22 22 22 21 21 21 20 20 20 19 19 19 19 19 19 19 19 20 20
26 26 26 26 26 25 25 24 24 24 24 23 24 24 24 24 24 24 24 24 24 24 24 24 24 24 25 26 27 27 27 28 29 30 30 31 31 31 32 34 36 37 37 36 35 34 34 33 33 32 32 32 31 31 30 30 30 29 29 28 27 26 26 25 25 24 24 23 23 22 22 22 21 20 20 19 19 19 19 19 19 20 20 20 20
26 26 25 26 25 25 25 24 24 24 23 23 24 24 25 25 25 24 24 24 24 24 24 24 24 24 24 25 26 27 27 27 28 29 29 30 31 31 31 33 35 36 37 37 36 34 33 33 33 33 32 32 32 31 31 31 31 30 30 30 30 29 28 27 26 25 25 25 24 23 23 23 22 21 20 20 19 19 19 19 19 20 20 20 20
25 25 26 26 25 25 25 24 23 23 23 23 24 24 24 24 24 24 24 24 24 24 24 24 24 24 24 25 26 26 27 27 27 28 28 29 30 30 31 32 34 35 36 36 35 34 33 33 32 32 33 33 33 32 31 31 31 31 31 31 31 31 30 30 29 28 27 26 26 25 25 24 23 22 21 21 20 20 20 20 20 20 21 21 20
25 25 25 25 25 25 25 24 23 23 23 23 24 24 24 24 23 23 23 23 23 23 24 24 24 24 24 24 25 26 26 26 27 28 28 28 29 29 29 29 31 33 35 35 35 34 34 34 33 33 33 33 33 32 31 31 30 30 31 31 31 31 31 31 31 30 29 28 27 27 26 25 25 24 23 22 21 21 20 20 20 20 21 21 20
25 25 25 25 25 25 25 24 23 23 23 24 24 24 23 23 23 23 22 22 23 23 23 23 23 24 24 24 24 25 25 26 26 28 28 28 28 28 27 27 28 31 33 34 34 34 34 34 34 34 33 33 33 33 32 32 31 31 31 31 31 31 31 31 31 31 31 30 29 29 28 27 26 26 24 22 22 22 21 21 21 20 21 21 21
25 26 26 25 25 25 25 24 24 24 24 24 24 24 23 23 23 22 22 23 22 22 23 23 23 24 24 24 24 25 25 25 26 27 27 27 27 27 27 26 27 29 32 33 34 34 34 34 35 35 34 33 33 33 33 33 32 32 31 31 31 31 31 31 31 31 31 31 30 30 29 28 27 27 25 23 22 22 22 22 21 21 21 21 21
26 26 26 26 25 25 25 25 24 24 24 24 24 24 23 23 23 22 22 23 22 22 22 23 23 23 24 24 24 25 25 25 25 26 27 27 27 26 26 26 25 27 30 33 34 35 35 34 34 34 34 34 34 33 33 33 33 32 32 32 31 31 31 30 31 32 32 31 31 30 30 29 28 27 26 24 24 23 22 23 22 22 21 21 21
26 26 26 26 26 26 26 25 25 25 25 25 25 24 24 23 22 22 22 22 22 22 22 22 22 23 24 24 24 25 25 25 25 26 27 27 27 26 26 26 25 25 28 30 32 34 35 35 35 34 33 33 33 33 33 33 33 33 32 32 31 31 31 30 30 31 32 32 31 30 30 30 29 28 27 26 25 25 25 24 23 22 21 21 21
26 26 26 26 26 26 26 26 25 25 25 25 25 24 24 23 22 22 22 22 22 22 22 22 22 22 23 24 24 25 25 25 25 26 27 27 28 27 27 26 26 25 26 28 30 32 33 34 35 34 34 33 33 33 33 33 33 33 33 32 32 32 31 31 31 31 31 31 31 31 31 31 30 29 29 28 27 27 27 26 25 23 22 21 21
26 26 26 26 26 26 26 26 25 25 25 25 25 24 24 23 23 22 22 22 22 21 21 22 22 22 22 23 24 24 25 25 25 26 27 27 28 28 27 27 26 25 25 27 28 30 32 32 33 34 34 34 33 33 34 34 34 33 33 33 33 32 32 31 31 31 31 31 31 31 31 31 31 30 30 29 29 28 28 27 26 25 23 23 22
26 26 26 26 26 26 26 26 26 26 25 25 25 24 24 23 23 22 22 22 22 21 21 21 22 22 22 22 23 24 25 25 25 26 27 27 27 28 28 27 26 25 25 26 27 28 30 31 31 32 33 33 34 34 35 35 34 34 33 33 33 33 32 32 32 31 31 31 31 30 30 30 30 30 30 29 29 29 28 27 27 26 25 24 23
26 26 26 26 26 26 26 26 26 25 25 24 24 24 24 23 23 22 22 22 22 22 21 21 21 22 21 22 22 23 24 25 25 26 26 27 27 28 28 28 27 26 25 25 26 26 27 28 29 30 31 32 33 34 34 35 35 35 34 34 34 33 33 33 32 31 31 31 31 30 30 30 30 30 30 30 30 29 28 27 27 27 26 25 24
27 27 26 26 26 26 26 26 26 25 25 24 24 24 23 23 23 22 22 22 22 22 21 21 21 21 21 21 21 22 23 24 24 25 26 27 27 27 28 28 28 27 26 26 25 25 26 26 27 28 29 30 31 32 33 33 34 34 34 35 34 34 34 34 33 33 32 32 32 31 30 30 30 30 30 30 30 29 28 27 27 27 27 26 25
27 27 26 26 26 26 27 26 26 26 25 25 24 24 23 23 23 22 22 21 21 21 21 21 21 21 21 21 21 21 21 22 23 24 25 26 26 26 27 28 28 29 28 27 25 25 25 25 25 26 27 28 29 30 31 32 32 33 34 34 35 35 35 34 34 33 33 33 33 32 32 30 30 31 30 30 29 29 29 28 28 27 27 26 25
27 27 27 27 27 27 27 26 26 25 25 25 24 23 23 23 22 22 21 21 21 21 21 21 20 20 20 20 20 20 20 21 22 23 24 25 26 26 26 27 28 29 28 27 26 25 25 25 25 25 26 27 28 29 29 30 31 32 32 33 34 34 34 35 35 34 34 34 34 34 33 32 31 32 31 30 29 29 29 28 28 27 26 25 24
27 27 27 27 27 27 27 26 26 25 25 24 24 23 22 22 22 21 21 20 20 20 21 20 20 20 20 20 20 20 20 20 21 22 23 24 25 25 25 26 27 28 28 28 27 26 25 25 25 26 26 27 27 28 29 29 30 31 31 32 33 33 33 34 35 35 35 35 35 34 34 34 33 32 31 30 30 29 29 29 28 27 26 25 24
28 28 28 28 28 27 27 27 26 26 25 24 24 23 22 22 22 21 20 20 20 20 20 20 20 20 19 19 19 20 20 20 20 21 22 23 23 24 24 25 26 26 27 27 27 26 25 25 25 25 26 26 27 28 29 29 30 30 31 31 32 32 33 33 34 35 35 35 35 34 34 33 33 32 32 31 30 30 29 29 28 27 26 25 24
28 28 28 28 28 27 27 27 27 26 26 25 24 23 23 22 21 21 20 20 20 20 19 19 19 20 19 19 19 19 19 19 20 20 21 21 22 22 23 23 24 25 25 25 25 25 24 24 24 24 24 24 25 26 27 28 29 29 30 31 31 32 33 33 34 34 34 34 34 34 34 33 33 33 32 31 30 29 29 28 27 26 25 24 24
29 29 29 28 28 28 28 27 27 26 26 25 25 24 23 22 22 22 21 21 20 20 20 20 19 19 19 19 19 19 19 19 19 20 20 21 21 22 22 23 24 24 24 24 24 24 23 22 22 23 23 23 24 24 25 26 26 28 29 30 30 31 31 32 33 33 33 33 33 33 33 33 32 32 32 31 30 29 28 27 27 26 25 24 24
29 29 29 29 28 28 28 28 27 27 26 26 25 25 24 23 22 22 22 21 21 21 21 21 20 20 20 19 19 20 20 19 19 20 21 22 22 22 23 23 24 24 24 23 23 23 23 22 22 22 22 22 22 22 22 23 24 25 27 28 29 29 29 30 31 32 32 32 32 31 32 32 31 30 31 30 29 28 28 27 26 26 25 24 23
29 29 29 29 29 29 28 28 27 27 26 25 25 25 24 23 22 21 21 21 21 21 20 20 21 20 20 20 20 20 20 20 20 20 21 22 23 23 23 23 24 24 24 24 23 23 23 22 21 21 21 21 21 20 20 20 21 23 24 25 27 27 27 28 29 29 30 30 30 30 30 30 30 29 30 29 28 27 26 26 25 24 24 23 22
29 29 29 29 29 29 28 28 27 26 25 25 24 24 24 22 22 21 21 20 20 20 20 20 20 20 20 21 21 20 20 20 20 20 20 21 22 22 22 23 24 24 24 24 24 23 22 22 21 20 20 20 20 19 19 19 19 20 21 22 23 25 25 26 26 27 27 28 28 28 29 29 28 28 28 28 27 26 25 24 24 23 23 22 21
30 30 29 30 29 29 28 27 26 26 25 24 24 24 23 22 22 21 20 19 19 20 19 19 19 19 19 20 20 20 19 19 19 19 20 20 21 22 22 23 23 24 24 24 23 23 22 21 21 20 19 19 19 18 18 18 18 18 19 19 20 21 22 23 23 24 25 26 26 27 27 27 27 27 27 27 26 25 24 23 22 22 22 21 20
30 29 29 29 29 28 27 26 26 25 25 24 24 24 22 21 21 21 20 19 18 18 18 18 19 19 18 18 19 19 19 19 20 20 20 20 21 22 23 23 23 24 24 24 23 22 21 21 21 20 19 19 18 17 17 17 17 17 18 17 17 18 19 20 20 20 22 23 24 25 25 25 24 25 26 26 25 23 23 22 21 21 20 19 18
29 29 29 29 28 27 26 26 25 25 24 24 23 23 22 21 21 20 19 18 18 17 17 17 17 18 18 18 18 18 18 19 19 19 20 20 21 22 23 23 23 24 24 24 23 22 21 21 20 20 19 18 17 16 16 16 16 16 16 16 16 16 16 16 16 16 17 19 20 21 23 23 21 19 19 22 23 22 21 20 19 18 18 17 17
29 29 28 28 27 27 26 25 25 24 24 23 22 22 21 21 21 19 18 17 17 16 16 16 16 16 17 17 17 17 18 18 18 19 19 20 21 22 23 24 24 24 24 24 23 23 21 21 20 19 18 17 16 15 14 14 14 14 13 13 14 15 15 15 14 13 13 13 15 17 18 20 19 17 17 20 22 20 18 17 16 16 16 15 15
28 28 27 27 27 26 26 25 25 24 23 22 21 20 20 20 19 18 17 16 16 15 15 15 15 15 15 16 16 17 17 17 17 18 19 20 21 22 23 23 24 24 24 24 23 22 21 20 20 19 18 17 15 14 13 13 12 12 11 11 11 13 14 14 14 14 12 12 13 15 16 17 17 16 16 18 19 17 15 15 15 15 15 14 14
28 28 27 27 27 26 25 24 24 23 22 21 20 19 19 19 17 16 16 15 15 14 14 14 14 14 14 15 15 16 16 16 17 17 18 19 21 22 23 23 23 24 24 23 22 21 20 19 19 18 17 16 15 14 14 13 12 11 10 10 10 10 11 11 12 12 12 12 13 14 15 15 14 14 14 15 16 15 14 14 14 14 14 14 14
27 27 27 27 26 25 24 23 22 21 20 19 18 18 18 17 16 15 14 14 14 13 13 13 13 13 14 14 14 15 15 16 16 16 17 18 19 21 22 23 23 23 23 22 20 20 19 18 18 18 17 16 15 14 14 14 13 12 11 10 10 10 10 11 11 11 12 12 13 13 13 13 13 13 13 13 13 13 13 13 13 13 13 13 13
27 26 26 26 25 24 23 22 20 19 18 17 17 17 16 15 15 14 13 13 13 13 13 13 13 13 13 14 14 14 15 16 15 15 15 16 18 19 21 22 23 23 23 21 20 19 18 18 18 18 17 16 16 15 15 14 14 12 12 11 11 11 11 11 11 12 12 12 12 12 12 12 12 12 12 12 12 13 13 13 12 12 12 11 11
26 25 25 24 23 22 21 20 19 17 16 16 16 15 15 15 14 13 12 12 12 12 12 12 13 13 13 13 13 14 14 15 14 14 15 16 17 19 20 22 22 22 22 21 20 19 18 18 18 18 17 16 16 15 15 14 14 13 13 13 12 12 12 11 11 12 12 12 12 12 12 12 12 11 11 12 12 12 12 11 11 11 11 11 11
24 23 22 21 20 19 18 18 17 16 15 15 15 14 14 14 13 12 12 12 12 12 12 12 13 13 12 12 12 13 13 14 14 13 14 15 17 18 19 21 21 21 21 20 19 18 17 18 18 17 16 15 15 15 14 14 14 14 14 14 14 13 13 13 12 12 12 11 12 12 12 12 12 12 11 11 11 11 11 10 10 10 11 11 11
22 20 19 19 18 18 17 16 15 15 14 14 14 14 14 13 12 11 11 11 11 12 12 12 12 12 11 11 11 11 12 13 12 12 13 14 16 17 18 19 20 20 20 19 18 17 17 17 17 16 15 15 14 14 14 14 14 14 14 14 14 14 14 13 13 13 12 11 11 11 11 11 11 11 11 11 10 10 10 10 10 11 11 11 11
20 19 18 17 17 16 15 15 14 14 14 14 14 13 13 13 12 11 11 11 11 11 11 11 11 11 10 10 9 10 11 11 11 11 12 14 15 16 16 18 19 19 19 19 18 17 17 16 16 15 15 15 15 14 13 13 13 13 13 13 14 14 13 13 13 12 12 12 11 11 11 11 11 11 10 11 11 11 11 11 11 11 11 11 11
18 17 17 16 16 15 15 14 14 14 13 13 13 13 13 12 12 11 11 11 11 11 11 11 10 10 9 9 8 8 9 9 9 10 12 14 15 15 15 16 17 18 18 18 17 16 16 16 16 15 14 14 15 15 14 13 12 12 12 12 12 12 12 12 12 12 12 12 11 11 11 11 11 11 11 11 11 11 11 11 11 10 10 10 11
17 17 16 15 15 15 15 14 14 13 13 13 13 13 12 12 12 11 11 11 11 11 10 9 9 9 8 7 7 7 8 8 8 10 12 13 15 14 14 15 16 17 18 17 16 15 15 16 15 15 14 14 14 15 15 14 14 13 12 12 11 11 11 11 11 12 11 11 11 11 11 11 11 10 10 11 10 10 10 9 9 10 10 10 10
17 16 16 15 15 15 14 14 14 13 13 13 13 13 12 12 12 11 11 10 10 10 9 8 8 7 6 5 6 6 7 7 8 9 12 13 14 14 14 15 16 16 16 16 15 15 15 15 14 14 14 14 14 14 15 15 15 14 13 12 12 11 11 11 11 11 11 11 10 10 10 10 10 10 10 10 10 10 9 9 9 9 10 10 10
16 16 16 15 14 13 14 14 14 14 13 13 13 12 12 12 11 11 10 10 9 8 8 7 6 4 3 4 5 6 7 7 7 10 12 13 13 13 14 15 16 15 15 14 14 15 16 16 14 14 14 14 13 13 14 15 15 14 14 13 12 12 11 11 11 11 10 10 10 10 10 10 10 10 10 10 10 10 10 10 10 10 11 11 11
16 16 15 14 13 13 13 13 13 13 13 13 13 12 12 12 11 10 10 9 8 7 6 5 4 3 2 4 4 5 6 7 8 9 12 13 13 13 14 14 14 14 14 14 14 15 16 16 15 14 14 13 13 13 14 14 14 14 14 13 13 12 11 11 11 10 10 10 9 9 10 10 10 10 10 10 10 10 10 11 11 11 12 12 12
15 15 14 13 12 12 13 13 13 13 13 13 13 13 13 12 11 10 10 8 7 6 5 4 2 1 2 3 4 4 5 7 8 10 12 13 13 13 14 14 14 14 14 14 14 15 15 15 15 14 14 13 13 13 14 14 14 14 13 13 12 11 10 10 10 10 10 10 10 10 10 10 10 10 10 10 10 10 10 11 11 11 11 11 11
15 14 13 12 12 12 12 12 12 13 13 13 14 14 13 12 11 10 10 9 7 5 4 3 2 2 3 3 2 3 5 7 8 9 12 13 13 13 14 14 14 14 14 14 14 15 15 15 14 14 14 13 13 13 13 13 13 13 13 12 11 10 10 10 9 9 9 9 9 9 9 9 10 10 10 10 10 10 10 9 9 10 10 10 10
Wind_Direction
320 317 315 313 310 308 305 302 299 296 293 291 288 285 283 280 277 274 272 270 268 266 264 262 260 259 257 255 253 250 248 246 243 238 235 234 233 232 232 233 232 231 231 231 232 232 232 232 233 234 236 238 239 241 241 242 242 242 242 242 243 244 244 244 247 250 251 251 252 254 254 253 253 253 254 254 254 254 256 256 256 256 257 258 257
319 317 315 313 311 309 306 303 300 297 295 292 289 287 284 281 278 276 273 270 268 266 264 262 260 259 257 255 253 251 249 247 244 240 236 233 232 232 231 232 232 231 230 231 231 232 233 233 233 234 235 237 238 240 241 241 241 242 242 242 243 244 245 245 247 249 250 250 251 253 254 253 253 253 253 254 255 255 256 256 257 257 257 258 259
317 315 314 312 310 309 306 304 301 298 296 293 291 288 286 283 280 277 274 271 269 266 265 263 261 259 257 255 253 251 249 247 245 242 238 233 230 231 231 231 232 230 230 231 231 231 232 233 234 234 235 236 237 239 240 240 240 241 242 242 243 244 245 246 246 248 250 251 251 252 253 253 253 253 254 256 257 257 257 258 257 257 258 259 260
316 314 313 311 309 308 306 304 302 299 296 294 291 289 287 284 281 278 275 272 270 267 265 263 261 259 258 255 253 251 249 248 246 243 239 234 231 230 231 231 231 230 230 230 231 231 232 233 234 234 234 236 237 238 238 239 239 240 242 242 243 244 246 247 246 247 249 251 251 252 252 252 253 254 255 257 258 258 259 259 259 259 259 259 260
315 314 312 310 309 307 305 303 301 299 297 295 292 290 288 285 282 279 276 273 271 268 266 263 261 260 258 256 253 252 250 248 246 244 240 235 231 229 230 230 230 230 230 230 231 232 232 232 232 233 234 235 236 237 238 239 239 240 241 242 243 244 246 247 247 246 247 249 251 252 252 252 253 254 256 257 258 259 259 260 261 261 261 261 261
315 314 312 310 309 307 305 302 301 299 297 295 293 292 289 287 284 281 278 274 271 269 267 264 262 260 258 256 253 251 251 249 247 244 240 235 231 229 229 229 230 230 230 230 231 231 232 231 231 232 233 235 236 237 238 240 240 240 241 242 243 244 246 247 247 247 246 248 250 251 252 252 252 254 255 257 257 258 259 260 261 261 262 262 262
315 314 312 311 309 307 305 302 300 299 297 296 294 292 291 289 286 283 279 276 272 270 268 265 263 260 258 256 252 251 250 249 247 244 241 236 232 229 228 229 229 230 230 230 230 231 231 232 231 232 233 234 236 237 238 240 240 240 241 242 243 244 246 246 247 247 247 248 248 249 251 251 252 253 255 256 258 259 260 261 261 261 261 262 263
315 314 313 312 310 308 305 302 300 299 297 296 294 293 292 290 288 285 281 277 273 271 268 266 263 261 258 256 253 251 249 248 247 245 242 239 234 230 229 228 229 230 230 230 231 230 231 231 232 232 233 234 235 236 237 238 238 240 240 241 242 243 245 246 247 246 247 248 248 248 249 250 252 253 254 255 257 259 260 261 262 262 262 262 263
315 314 313 312 311 309 306 302 300 298 297 295 293 292 292 291 289 286 282 278 275 271 269 267 264 261 259 256 253 251 249 248 247 246 243 241 238 234 231 229 229 230 230 231 231 231 231 232 233 233 234 234 235 235 236 236 237 238 239 240 241 242 243 245 246 247 247 247 247 247 248 249 251 253 254 254 256 259 261 261 262 262 262 262 263
315 314 313 313 312 310 307 304 301 299 297 295 293 292 292 291 290 287 284 280 276 272 269 267 265 262 259 256 254 252 249 248 247 246 244 242 240 238 234 230 229 230 230 232 233 232 232 233 233 233 233 234 235 235 236 236 237 238 239 240 241 242 243 244 244 246 247 247 247 247 248 249 250 251 253 255 257 260 261 261 261 261 262 263 263
316 315 314 313 313 311 308 305 302 299 297 295 294 293 292 291 290 287 285 281 277 273 270 267 265 262 259 257 255 253 251 248 246 246 244 243 242 241 237 233 230 230 230 232 234 235 233 232 233 233 233 234 235 235 236 237 238 238 239 240 241 242 242 243 243 244 245 247 247 247 248 249 249 249 252 254 257 259 260 261 261 261 261 262 264
316 316 315 314 313 312 309 306 303 300 298 297 296 294 293 292 290 287 285 282 278 274 270 267 265 263 260 258 255 254 252 249 247 247 246 244 242 241 240 236 232 231 230 231 234 235 233 232 232 233 233 234 235 236 237 238 238 239 240 240 241 242 242 243 243 244 244 246 247 248 250 251 250 249 251 253 256 258 260 262 262 263 263 263 264
316 316 316 315 314 313 311 308 305 302 300 298 297 296 294 293 291 288 285 283 279 275 271 268 265 263 261 259 256 255 253 249 246 246 247 245 242 241 241 239 234 232 231 231 233 234 234 233 233 233 233 234 234 235 237 238 239 239 240 241 241 242 242 243 244 244 245 246 247 249 251 252 253 252 251 253 255 258 260 262 263 265 267 267 266
317 317 316 316 315 313 312 309 306 303 302 300 299 297 296 294 292 289 287 284 281 277 272 269 265 263 261 259 257 255 254 250 246 245 245 244 242 241 242 241 237 233 231 232 233 233 234 234 233 234 233 233 234 235 236 237 238 239 240 241 242 243 243 243 243 244 245 246 248 249 250 251 254 255 254 253 255 257 260 262 264 266 268 269 270
317 317 317 316 315 314 312 309 306 304 303 302 301 299 297 295 293 290 287 285 282 279 274 270 266 263 261 259 257 255 254 251 247 245 244 243 241 240 242 243 240 235 232 232 233 234 235 234 234 235 234 233 234 235 235 236 238 238 239 241 242 243 243 243 243 243 244 246 247 249 249 250 253 256 256 254 255 258 260 262 265 266 268 270 272
318 317 317 317 315 314 312 309 306 304 304 303 302 300 298 296 294 291 288 285 283 280 276 271 267 264 261 259 257 256 254 251 247 245 243 242 240 240 241 243 242 238 235 234 234 235 235 235 235 235 235 234 234 235 235 237 238 238 239 241 242 243 243 244 243 243 244 245 246 248 249 250 252 255 256 255 256 258 260 262 265 266 268 270 272
318 317 317 317 316 314 312 309 306 304 304 304 302 300 298 296 294 292 290 286 283 280 277 273 269 264 261 259 257 256 254 251 247 245 243 240 239 240 240 242 242 239 237 236 236 236 235 235 235 235 235 234 235 235 236 237 238 239 240 241 242 243 243 244 244 244 244 245 246 247 248 249 250 252 254 254 256 257 259 261 263 265 267 269 270
317 317 317 317 316 314 312 309 306 304 303 303 302 301 299 297 295 293 291 288 284 281 277 274 270 266 261 259 257 255 254 250 246 245 243 240 238 239 240 241 241 241 239 238 237 236 235 235 235 235 236 236 235 236 237 238 239 240 241 241 242 242 243 244 244 244 244 245 246 247 248 248 249 250 251 252 254 255 258 260 262 264 265 266 268
317 317 317 317 316 314 313 310 307 304 302 302 302 301 298 296 295 294 291 289 285 282 278 274 271 268 263 260 257 255 254 250 246 243 243 241 239 239 240 240 241 241 241 240 238 236 236 236 235 235 236 237 236 236 237 238 239 240 241 242 243 244 243 243 244 244 244 244 245 246 247 247 248 249 250 251 253 254 256 259 261 262 264 264 266
316 316 316 316 316 315 314 312 309 306 303 301 300 300 298 296 295 293 292 289 286 282 278 274 272 269 265 261 257 255 254 251 246 243 242 242 240 239 240 240 240 241 242 241 240 238 238 237 236 236 237 238 238 237 237 238 239 241 241 242 245 245 244 244 245 245 245 245 245 246 246 247 247 248 250 251 252 254 255 257 258 260 261 263 265
316 316 316 316 316 315 314 313 311 308 305 301 299 298 297 296 295 293 291 289 286 282 278 274 271 269 266 262 258 255 254 251 248 243 241 242 241 240 240 240 240 240 241 242 242 241 239 239 238 238 238 238 239 239 238 239 240 241 242 242 244 246 245 245 246 247 247 247 248 247 246 247 248 248 249 250 251 253 254 255 256 258 259 261 264
315 315 315 315 315 315 315 314 312 310 307 303 300 298 297 296 295 293 290 288 285 282 278 274 271 268 266 263 259 256 254 252 249 244 241 241 241 241 241 240 239 239 241 242 243 242 241 240 240 239 238 238 238 239 239 240 240 242 243 243 244 245 246 246 247 248 249 250 250 248 247 247 248 248 249 250 250 251 253 254 255 256 258 261 262
315 315 314 314 315 316 316 315 313 311 309 306 302 299 297 296 294 293 290 287 285 282 277 273 270 268 266 263 260 258 255 252 249 246 242 240 241 241 241 240 239 238 239 241 242 243 242 241 241 239 237 237 238 239 240 241 241 243 244 244 245 246 246 247 247 248 249 249 249 249 248 248 248 248 249 249 249 249 251 253 254 256 258 260 260
314 314 313 313 314 315 315 315 313 311 310 307 304 301 299 296 295 293 290 287 284 282 278 273 269 266 265 264 262 259 256 252 250 247 243 241 240 241 240 239 238 238 239 240 241 243 243 242 242 241 239 239 240 241 241 242 242 243 244 245 245 246 246 247 247 247 248 248 248 248 249 248 248 248 249 249 248 248 250 252 253 255 257 259 259
313 313 313 313 313 313 314 314 313 311 310 308 306 303 300 297 294 293 290 286 283 281 278 273 269 265 263 262 261 259 256 253 251 248 245 242 241 241 240 238 237 237 238 239 240 242 243 244 244 243 242 242 242 243 243 243 243 244 244 245 245 246 246 247 247 247 247 247 247 247 248 248 249 249 249 248 247 247 249 251 252 253 255 256 258
313 312 312 312 312 312 312 312 312 311 310 309 306 303 300 297 294 292 289 286 283 281 277 273 270 266 263 260 260 260 257 253 250 248 246 243 241 240 239 237 236 235 237 239 240 242 244 245 245 244 243 243 244 244 245 245 244 244 245 245 246 246 246 247 247 247 247 247 247 247 247 248 249 249 248 247 247 248 249 249 250 251 252 253 253
312 312 312 312 311 311 311 311 311 310 310 309 307 304 300 297 295 292 289 286 283 281 277 273 269 266 264 261 259 259 257 254 250 247 245 242 240 238 237 236 235 234 235 237 239 241 242 244 245 245 245 244 245 245 246 246 245 246 246 246 246 246 246 246 247 247 247 247 247 247 247 247 247 247 247 247 247 247 247 247 247 248 248 248 249
312 312 312 311 311 310 310 310 309 309 308 308 307 304 301 298 295 292 288 285 283 280 277 273 269 266 265 263 260 258 257 255 250 246 243 241 239 237 236 235 234 234 234 235 237 238 240 241 243 244 245 245 245 245 246 246 246 247 247 247 247 247 247 247 247 248 247 247 247 246 246 246 246 246 246 246 245 245 245 245 245 245 245 245 247
312 312 311 311 310 310 309 309 308 307 307 307 306 304 300 296 294 291 288 284 281 278 275 272 269 266 264 263 260 258 256 254 249 245 243 241 239 237 237 236 234 233 233 233 234 235 237 239 242 244 245 246 246 246 246 246 246 247 248 248 248 248 248 248 248 247 247 246 245 245 245 245 245 244 244 244 243 242 243 243 242 243 243 244 246
312 312 311 311 310 310 309 308 307 306 305 305 305 304 300 295 291 289 287 284 280 276 272 269 267 265 263 261 259 257 256 254 252 248 245 241 239 237 237 237 235 233 232 231 232 233 236 239 241 243 245 246 247 247 246 246 247 248 248 248 248 248 248 248 247 247 246 244 243 242 243 244 244 242 241 241 241 240 241 241 241 241 241 242 243
312 312 311 311 310 310 308 307 306 305 304 303 304 304 301 297 292 288 285 283 279 275 271 268 265 263 261 259 258 257 255 254 253 250 246 242 237 236 236 236 234 232 230 230 230 232 235 238 241 243 244 245 246 246 247 247 248 249 249 248 247 246 247 247 247 246 244 242 241 241 242 242 242 241 241 240 239 238 239 239 238 237 237 238 238
312 312 311 311 310 309 308 307 306 304 303 302 303 303 301 298 296 292 286 282 278 275 271 268 264 261 258 257 256 255 254 252 251 249 246 242 237 234 234 234 233 230 228 228 229 231 233 236 239 242 243 243 243 245 247 249 251 251 251 249 247 246 247 247 246 245 243 241 239 239 240 240 240 240 240 238 236 235 235 234 233 232 232 233 233
313 312 312 311 310 309 308 307 306 305 303 302 302 302 300 298 297 295 290 284 279 274 270 267 264 260 257 255 253 253 253 251 250 248 245 242 238 234 232 232 231 229 226 226 227 230 232 234 238 241 241 241 242 245 248 250 251 252 251 249 248 248 248 247 245 244 242 240 238 238 238 239 240 239 237 234 232 231 229 228 227 226 226 228 228
313 312 312 311 310 310 309 308 306 305 303 302 301 301 298 297 297 295 291 287 283 277 272 268 264 260 258 254 252 251 251 251 249 248 246 242 238 234 231 230 229 228 225 225 226 229 230 232 235 238 239 239 241 245 248 250 251 250 249 247 248 248 245 243 243 242 241 239 237 236 236 236 239 240 235 228 224 221 218 217 219 222 224 226 227
314 313 312 312 311 311 310 308 307 305 303 301 300 299 298 298 298 295 291 288 284 279 275 270 265 261 258 255 252 251 250 250 249 247 245 242 238 233 230 227 226 225 224 223 225 227 229 231 233 234 234 236 239 243 246 248 249 247 246 245 245 242 238 237 238 238 237 236 234 232 231 229 230 229 219 209 207 207 208 211 217 221 222 221 222
314 313 313 312 312 311 311 309 307 306 303 301 299 298 299 299 297 293 290 288 284 279 275 272 267 262 257 256 254 252 250 250 248 246 244 241 236 231 228 226 224 223 222 222 223 225 228 230 231 231 231 233 237 239 241 243 243 242 241 242 240 236 232 232 233 231 228 226 223 219 216 213 211 208 199 195 196 199 203 210 217 219 218 217 218
315 314 314 313 312 311 311 309 308 306 303 301 298 298 300 300 297 293 290 287 283 279 275 272 268 263 259 256 254 253 251 250 248 246 244 241 236 231 228 226 224 222 220 221 222 224 226 229 229 228 228 230 231 232 233 234 233 233 232 232 232 230 228 229 229 227 224 221 215 206 198 195 198 202 203 203 203 205 209 214 216 216 215 214 215
316 315 314 314 313 311 310 309 308 306 304 301 300 301 301 300 297 293 290 287 283 280 276 272 268 265 262 259 255 252 251 250 249 246 244 241 237 232 227 225 223 219 217 218 221 222 224 226 226 225 225 225 226 227 227 226 225 225 224 223 222 220 217 216 217 216 213 210 207 201 196 195 198 202 202 204 207 210 214 216 214 212 211 211 212
316 316 315 314 313 313 312 311 309 308 305 302 302 303 303 301 299 296 291 287 284 281 277 274 271 268 265 262 258 253 251 250 248 245 241 238 235 230 225 223 221 218 215 216 218 219 221 222 221 220 220 221 222 222 222 222 223 222 219 216 215 212 206 202 199 197 196 195 195 195 196 197 199 199 199 201 204 207 209 210 210 210 210 211 214
317 316 316 316 315 315 314 313 311 310 308 305 304 305 305 304 303 299 294 289 285 282 279 276 272 270 268 265 259 255 253 250 245 240 237 234 231 226 222 219 217 215 213 212 213 215 217 218 216 215 215 217 218 217 216 218 219 218 214 211 210 207 204 201 200 200 200 201 201 202 203 202 200 201 202 203 203 205 206 207 208 210 211 213 215
318 317 317 318 318 318 317 316 314 312 311 310 308 308 308 307 304 301 296 291 287 283 281 277 274 272 270 266 261 256 252 245 238 235 234 231 225 219 215 213 211 210 209 209 210 212 214 213 212 211 213 215 216 214 212 212 213 212 210 207 205 202 200 199 200 201 204 206 206 206 206 205 203 202 201 200 201 203 204 206 207 209 211 214 217
320 320 319 320 321 321 320 319 318 316 316 315 312 311 311 311 308 304 301 297 293 289 285 281 278 276 271 264 259 254 246 236 232 232 231 224 216 211 209 207 206 206 205 205 207 209 210 209 208 209 210 211 212 211 209 208 207 206 205 203 202 200 198 197 197 199 201 202 201 199 199 199 199 198 197 197 199 201 203 205 207 210 213 217 220
324 323 322 323 324 325 324 323 322 321 321 319 317 315 315 314 312 309 307 304 300 297 293 287 285 282 274 264 257 248 236 228 226 227 223 214 207 205 204 203 201 201 201 201 202 204 206 206 205 204 206 208 208 207 206 206 204 202 200 199 199 199 198 197 197 197 196 195 194 193 194 194 195 195 196 198 200 202 205 208 211 214 218 221 225
329 328 328 328 329 329 328 328 327 326 324 323 321 319 320 320 317 314 313 310 307 304 300 294 290 286 278 269 257 242 229 223 220 217 211 203 198 197 198 197 196 196 197 196 197 201 204 203 200 200 202 204 203 201 200 200 201 199 198 196 196 195 195 194 193 193 192 191 190 191 192 192 194 196 198 200 203 206 209 212 215 219 222 226 230
334 334 334 334 334 333 332 332 331 329 328 327 324 323 324 325 322 319 318 316 312 308 304 298 291 284 277 268 254 238 228 221 213 207 203 198 194 193 194 194 193 193 191 191 193 199 202 200 196 195 197 198 198 197 196 195 194 193 192 191 190 189 189 188 188 189 190 190 191 192 194 196 199 201 203 206 209 211 213 216 220 224 228 233 237
339 339 340 339 338 337 337 336 335 334 333 332 330 329 328 327 325 323 321 319 316 312 308 302 293 283 273 261 245 231 221 210 202 199 196 192 190 190 190 189 187 186 186 188 193 199 200 196 192 192 194 194 194 194 193 192 191 189 188 188 187 186 186 187 188 189 191 192 193 195 197 199 203 207 210 213 215 216 219 222 226 230 234 239 243
342 342 342 342 341 341 342 342 341 340 339 337 335 334 332 330 328 326 324 322 321 319 314 307 298 286 271 252 234 218 202 190 188 189 186 182 183 186 185 183 182 184 186 191 195 197 195 191 189 189 191 191 191 191 191 191 191 190 190 190 191 190 191 192 192 192 193 195 198 201 203 206 210 213 216 218 218 220 224 228 231 235 241 245 248
343 342 343 345 345 346 347 346 345 345 344 342 340 338 337 335 333 331 329 327 326 324 319 311 303 288 256 227 215 201 187 178 181 186 185 184 184 184 182 181 182 185 188 190 192 192 189 187 186 186 187 188 190 192 192 192 193 194 193 194 195 196 196 196 196 195 196 198 201 205 209 212 216 219 222 225 227 228 232 235 238 243 247 251 254
345 344 346 349 352 352 352 352 352 352 352 350 347 346 344 342 340 338 336 333 330 328 324 314 304 282 219 200 198 189 179 175 176 181 185 186 186 184 182 182 184 186 187 187 188 188 187 186 185 185 186 187 188 189 189 190 191 193 194 195 195 196 196 196 198 201 204 207 210 212 216 220 223 226 228 232 234 237 240 243 247 250 252 254 258
348 348 351 355 357 357 358 359 1 1 1 359 358 356 355 353 350 346 344 341 337 335 336 330 315 253 181 184 190 185 178 176 175 176 179 180 180 180 181 182 183 184 185 185 185 185 184 184 184 184 184 184 184 184 185 186 188 190 192 194 195 196 197 199 202 207 212 215 218 222 224 225 227 230 233 237 240 244 247 249 251 253 254 256 258
352 353 356 359 360 359 0 2 4 6 7 7 8 8 8 7 5 2 2 0 357 356 3 15 43 116 136 147 161 170 170 169 170 174 178 179 177 175 177 179 181 181 181 181 181 181 181 181 183 185 186 187 187 185 184 185 188 191 194 194 195 195 197 199 203 208 212 216 221 225 227 228 231 235 239 243 246 248 250 250 250 251 254 255 257